Powrót do katalogu

STARLINK-32392

AktywnyŁącznośćVLEO
NORAD 61214·PAYLOAD·🇺🇸 United States

Wystrzelony Sep 20, 2024 z Vandenberg Space Force Base

Loading…

Następne Przeloty (najbliższe 24 godziny)

TLE

ŚwieżeSource: CelesTrak SupGP

Epoka: Sep 14, 2026, 20:58 UTC

1 61214C 24171Q   26257.87409722 -.00027450  00000+0 -81070-3 0  2575
2 61214  53.1579 159.8361 0001304 101.0172  56.9484 15.34416510    16

Śledź STARLINK-32392 w czasie rzeczywistym z AllMySat

Download on the App Store